[[{"header":{"parameterUnit":"m.s-1","parameterCategory":1,"la1":30.2991,"la2":30.254,"lo1":-89.0895,"lo2":-89.0444,"dx":0.0017,"dy":0.0017,"nx":28,"ny":28,"refTime":"2022-12-23T15:00:00:Z","depth":0,"parameterNumber":2,"parameterNumberName":"U-component_of_WINDS"},"data":[0,0,0,0,0,0,0,0,0,0,0,0,0,0,0,0,0,0,0,0,0,0,0,0,0,0,0,0,0,0,0,0,0,0,0,0,0,0,0,0,0,0,0,0,0,0,0,0,0,0,0,0,0,0,0,0,0,0,2.8373,2.8373,0,2.8357,2.8357,2.8357,2.8318,2.8317,2.8317,2.8316,2.8297,2.8298,2.8298,0,0,0,0,0,0,0,0,0,0,0,0,0,2.837,2.837,2.8373,2.8373,2.8373,2.8357,2.8357,2.8357,2.8318,2.8317,2.8316,2.8315,2.8297,2.8298,2.8298,0,0,0,0,0,0,0,0,0,0,0,0,0,2.8364,2.837,2.8373,2.8352,2.835,2.8357,2.8357,2.8357,2.8318,2.8317,2.8316,2.8315,2.8297,2.8298,2.8298,2.8324,0,0,2.8299,2.8299,0,0,0,0,0,0,0,0,2.8365,2.8365,2.8355,2.8353,2.8351,2.8338,2.8349,2.8346,2.8319,2.833,2.8316,2.8314,2.8312,2.8311,2.8311,2.8323,2.8323,2.8299,2.8299,2.83,2.83,0,0,0,0,0,0,0,2.8365,2.8365,2.8367,2.8355,2.8352,2.8343,2.8341,2.8348,2.8328,2.8329,2.8326,2.8325,2.831,2.831,2.831,2.8322,2.8299,2.83,2.83,2.83,2.8358,2.8359,0,0,0,0,0,0,2.8369,2.8366,2.8367,2.8366,2.8355,2.8344,2.8341,2.8344,2.8328,2.8324,2.8326,2.8323,2.831,2.8309,2.8309,2.8339,2.83,2.83,2.83,2.8356,2.8358,2.8359,0,0,0,0,0,0,2.8369,2.8369,2.8368,2.8365,2.8364,2.8345,2.8348,2.8344,2.8344,2.8325,2.8322,2.833,2.8309,2.8308,2.8321,2.8338,2.83,2.83,2.8355,2.8357,2.8359,2.84,0,0,0,0,0,0,2.8369,2.837,2.8379,2.8366,2.8365,2.838,2.8349,2.8344,2.8345,2.8341,2.8328,2.8324,2.8308,2.8321,2.8322,2.8338,2.8301,2.8353,2.8356,2.8358,2.8397,2.8403,2.8409,0,0,0,0,0,2.8369,2.8391,2.838,2.838,2.8376,2.8382,2.8381,2.8362,2.8346,2.8356,2.8345,2.8325,2.8337,2.8323,2.8323,2.834,2.8352,2.8355,2.8358,2.8395,2.8402,2.8409,0,0,0,0,0,0,2.8406,2.8389,2.8376,2.8395,2.839,2.8375,2.8386,2.8371,2.837,2.8366,2.8343,2.834,2.8357,2.8349,2.8334,2.8365,2.8341,2.8344,2.8369,2.8376,2.8382,2.8383,2.8301,0,0,0,0,0,2.8416,2.8422,2.8407,2.8424,2.8423,2.8406,2.8407,2.8393,2.8387,2.8385,2.8374,2.8369,2.8372,2.8373,2.8375,2.8397,2.8393,2.8409,2.8414,2.8419,2.8422,2.8434,2.844,2.8369,2.8369,2.8369,0,0,2.8438,2.8429,2.8434,2.8432,2.8426,2.8433,2.8404,2.8412,2.8416,2.8386,2.8397,2.839,2.8382,2.84,2.8407,2.8395,2.8441,2.8423,2.8427,2.8427,2.8437,2.8444,2.845,2.8371,2.8371,2.837,0,0,2.848,2.8474,2.8488,2.8484,2.8477,2.8466,2.847,2.8457,2.8452,2.8463,2.8441,2.8446,2.8451,2.8447,2.8445,2.8489,2.8471,2.849,2.8519,2.8531,2.8537,2.8541,2.8557,2.8563,2.8493,2.8493,2.8493,0,2.8506,2.8516,2.8497,2.8507,2.8507,2.8482,2.8496,2.8493,2.8487,2.8487,2.8474,2.848,2.8473,2.849,2.8501,2.8501,2.8504,2.849,2.8537,2.8542,2.8546,2.8561,2.8567,2.8495,2.8495,2.8495,2.8494,0,2.855,2.8557,2.8569,2.8565,2.8567,2.8579,2.8562,2.8566,2.8553,2.8544,2.8556,2.8548,2.8547,2.855,2.8537,2.8566,2.8558,2.8542,2.8517,2.8556,2.8569,2.8575,2.8499,2.8498,2.8497,2.8496,0,0,2.8612,2.86,2.8604,2.8603,2.8594,2.8599,2.8611,2.8612,2.8616,2.8613,2.8622,2.8628,2.8613,2.8611,2.8598,2.8608,2.8644,2.859,2.8589,2.86,2.8675,2.8688,2.8695,2.8633,2.8633,2.8634,2.8676,0,2.8652,2.8671,2.8656,2.8678,2.8685,2.8661,2.8672,2.8668,2.8659,2.8664,2.8654,2.8659,2.8639,2.8638,2.8647,2.8637,2.8658,2.8634,2.864,2.8641,2.8642,2.8701,2.8714,2.8754,2.8681,2.8682,2.8683,0,2.87,2.87,2.8724,2.8715,2.8717,2.8727,2.8727,2.8732,2.8727,2.8721,2.872,2.8704,2.8716,2.8692,2.8707,2.8691,2.8693,2.8689,2.869,2.8689,2.8663,2.8702,2.8766,2.8772,2.8691,2.869,2.8689,0,2.8743,2.875,2.8765,2.8764,2.8755,2.8762,2.8759,2.8753,2.8755,2.8755,2.8756,2.8758,2.8758,2.876,2.8745,2.873,2.8762,2.8738,2.8757,2.8757,2.8764,2.8763,2.8829,2.8766,2.8766,2.8766,2.8766,0,2.8788,2.8803,2.8785,2.8794,2.881,2.8793,2.881,2.8804,2.88,2.8807,2.8787,2.8795,2.8775,2.8781,2.8769,2.8784,2.8784,2.8779,2.8776,2.8781,2.8781,2.8781,2.8777,2.8768,2.8767,2.8767,2.8767,0,2.8839,2.8827,2.8842,2.8833,2.8831,2.8843,2.8835,2.8844,2.8835,2.8845,2.8846,2.8833,2.8838,2.8824,2.8827,2.882,2.8841,2.8833,2.8843,2.884,2.886,2.8858,2.8927,2.8935,2.8868,2.8869,2.8869,0,2.8868,2.888,2.8872,2.8876,2.8874,2.8881,2.8883,2.8868,2.8871,2.8868,2.8877,2.8881,2.8884,2.8894,2.8884,2.8887,2.8879,2.8903,2.8879,2.8884,2.8879,2.8879,2.888,2.8908,2.8908,2.8909,2.891,0,2.8922,2.8916,2.892,2.8923,2.8927,2.8928,2.8928,2.8933,2.8916,2.8921,2.8927,2.8929,2.8934,2.8939,2.894,2.8936,2.892,2.8918,2.8922,2.8927,2.8932,2.8929,2.8856,2.8916,2.8915,2.8915,2.8914,2.8914,2.8962,2.8972,2.8968,2.8974,2.8973,2.8974,2.8982,2.8975,2.898,2.8983,2.8974,2.8982,2.8979,2.8979,2.8977,2.8984,2.8973,2.8979,2.8981,2.8982,2.8986,2.8932,2.8984,2.8984,2.8983,2.8983,2.8983,0,2.9014,2.9012,2.9018,2.9019,2.9024,2.901,2.901,2.9015,2.9023,2.9022,2.9026,2.9034,2.9039,2.903,2.9034,2.9041,2.9034,2.9042,2.9041,2.9041,2.8995,2.8991,2.9048,2.9048,2.9048,2.9048,2.9048,2.9048,2.9042,2.9058,2.9052,2.9067,2.9064,2.9073,2.9074,2.9075,2.9074,2.9084,2.9088,2.9083,2.9079,2.9083,2.9087,2.9085,2.9087,2.9098,2.9093,2.905,2.9044,2.9038,2.9033,2.9098,2.9099,2.9137,2.9138,2.9138]},{"header":{"parameterUnit":"m.s-1","parameterCategory":1,"la1":30.2991,"la2":30.254,"lo1":-89.0895,"lo2":-89.0444,"dx":0.0017,"dy":0.0017,"nx":28,"ny":28,"refTime":"2022-12-23T15:00:00:Z","depth":0,"parameterNumber":3,"parameterNumberName":"V-component_of_WINDS"},"data":[0,0,0,0,0,0,0,0,0,0,0,0,0,0,0,0,0,0,0,0,0,0,0,0,0,0,0,0,0,0,0,0,0,0,0,0,0,0,0,0,0,0,0,0,0,0,0,0,0,0,0,0,0,0,0,0,0,0,-9.2553,-9.2555,0,-9.2733,-9.2735,-9.2737,-9.2673,-9.2669,-9.2665,-9.2662,-9.2839,-9.2847,-9.2856,0,0,0,0,0,0,0,0,0,0,0,0,0,-9.2149,-9.2157,-9.2553,-9.2555,-9.2557,-9.2732,-9.2735,-9.2737,-9.2674,-9.2669,-9.2664,-9.266,-9.2836,-9.2846,-9.2856,0,0,0,0,0,0,0,0,0,0,0,0,0,-9.2326,-9.216,-9.2552,-9.2547,-9.2548,-9.2732,-9.2735,-9.2738,-9.2675,-9.2669,-9.2663,-9.2658,-9.2833,-9.2845,-9.2858,-9.3055,0,0,-9.2897,-9.2902,0,0,0,0,0,0,0,0,-9.2316,-9.2341,-9.2545,-9.2548,-9.2549,-9.2675,-9.2658,-9.2844,-9.2677,-9.2627,-9.2662,-9.2655,-9.2789,-9.2805,-9.2851,-9.3064,-9.3071,-9.2898,-9.2905,-9.2911,-9.2914,0,0,0,0,0,0,0,-9.2304,-9.2333,-9.2624,-9.2548,-9.2551,-9.2534,-9.2552,-9.2693,-9.2739,-9.2631,-9.2627,-9.2649,-9.2789,-9.2839,-9.2855,-9.3074,-9.2897,-9.2909,-9.2916,-9.2921,-9.3459,-9.3465,0,0,0,0,0,0,-9.2292,-9.2323,-9.2618,-9.2629,-9.2416,-9.2546,-9.2567,-9.264,-9.2737,-9.2746,-9.2654,-9.2645,-9.2821,-9.284,-9.2861,-9.31,-9.2911,-9.2922,-9.293,-9.3452,-9.3461,-9.3468,0,0,0,0,0,0,-9.2283,-9.2319,-9.2611,-9.2475,-9.2511,-9.2559,-9.2643,-9.2647,-9.2698,-9.2755,-9.2762,-9.2698,-9.2817,-9.2843,-9.3009,-9.3106,-9.2928,-9.294,-9.3445,-9.3455,-9.3464,-9.358,0,0,0,0,0,0,-9.2272,-9.2316,-9.2393,-9.2478,-9.2519,-9.2757,-9.2648,-9.2655,-9.2721,-9.2711,-9.2798,-9.2806,-9.2814,-9.299,-9.3021,-9.312,-9.295,-9.3436,-9.3449,-9.3461,-9.3567,-9.3592,-9.3614,0,0,0,0,0,-9.2258,-9.2416,-9.2397,-9.2433,-9.2616,-9.2763,-9.2786,-9.2794,-9.2729,-9.2806,-9.2843,-9.2804,-9.309,-9.3007,-9.3042,-9.3146,-9.343,-9.3445,-9.346,-9.3557,-9.3587,-9.3613,0,0,0,0,0,0,-9.2338,-9.2427,-9.2407,-9.2597,-9.2674,-9.2752,-9.2849,-9.2825,-9.292,-9.2907,-9.291,-9.293,-9.3101,-9.3139,-9.3046,-9.3343,-9.325,-9.3273,-9.3312,-9.3341,-9.3364,-9.3351,-9.296,0,0,0,0,0,-9.2379,-9.2493,-9.2563,-9.2724,-9.2764,-9.28,-9.2864,-9.2864,-9.2942,-9.2973,-9.3022,-9.3097,-9.3204,-9.3275,-9.3376,-9.3572,-9.3591,-9.3661,-9.3684,-9.3703,-9.3723,-9.3831,-9.3863,-9.3517,-9.3517,-9.3517,0,0,-9.2462,-9.2525,-9.2596,-9.2742,-9.2801,-9.2918,-9.2827,-9.2954,-9.304,-9.2991,-9.3152,-9.3191,-9.3275,-9.3457,-9.354,-9.3495,-9.3822,-9.3722,-9.3737,-9.3746,-9.385,-9.3882,-9.3911,-9.3528,-9.3526,-9.3524,0,0,-9.2675,-9.2733,-9.2875,-9.2937,-9.3029,-9.3052,-9.3087,-9.317,-9.3195,-9.3356,-9.3322,-9.3424,-9.3608,-9.367,-9.3726,-9.3965,-9.3933,-9.3997,-9.4119,-9.4224,-9.4252,-9.4276,-9.4362,-9.4393,-9.4017,-9.4017,-9.4017,0,-9.2766,-9.2943,-9.295,-9.3082,-9.3147,-9.3111,-9.3255,-9.3313,-9.3433,-9.3478,-9.3426,-9.3659,-9.3712,-9.391,-9.3969,-9.4014,-9.4053,-9.3988,-9.4247,-9.4272,-9.4294,-9.4377,-9.4409,-9.4024,-9.4023,-9.4023,-9.4022,0,-9.3052,-9.3175,-9.3279,-9.3398,-9.3475,-9.3612,-9.3639,-9.3715,-9.3709,-9.3738,-9.3903,-9.3967,-9.4082,-9.4128,-9.4121,-9.4326,-9.4295,-9.4246,-9.4152,-9.4335,-9.4412,-9.4444,-9.4035,-9.4032,-9.403,-9.4028,0,0,-9.3319,-9.3444,-9.3482,-9.3536,-9.3636,-9.373,-9.3865,-9.398,-9.4047,-9.413,-9.4243,-9.4401,-9.4357,-9.442,-9.442,-9.4513,-9.47,-9.4452,-9.4454,-9.4497,-9.493,-9.4967,-9.5004,-9.4679,-9.4685,-9.469,-9.4923,0,-9.3541,-9.3781,-9.3793,-9.401,-9.4124,-9.4093,-9.421,-9.4283,-9.4314,-9.4414,-9.4446,-9.4559,-9.4492,-9.453,-9.462,-9.4658,-9.4787,-9.4641,-9.4784,-9.4789,-9.4765,-9.5044,-9.5084,-9.5301,-9.4953,-9.4959,-9.4962,0,-9.3831,-9.3928,-9.4158,-9.4244,-9.4292,-9.4398,-9.4505,-9.4601,-9.4684,-9.4699,-9.4772,-9.4759,-9.4896,-9.4799,-9.4987,-9.4888,-9.4947,-9.4974,-9.4983,-9.4997,-9.4887,-9.5067,-9.537,-9.5403,-9.501,-9.5006,-9.5003,0,-9.4006,-9.4192,-9.4355,-9.4402,-9.4505,-9.4581,-9.4627,-9.4704,-9.4773,-9.4866,-9.4911,-9.5018,-9.5076,-9.5159,-9.5175,-9.5102,-9.5365,-9.5268,-9.5382,-9.5382,-9.5439,-9.5435,-9.5757,-9.5475,-9.5475,-9.5474,-9.5473,0,-9.4253,-9.4395,-9.4435,-9.4535,-9.4693,-9.4705,-9.486,-9.4901,-9.497,-9.5076,-9.5054,-9.5153,-9.5169,-9.5272,-9.5285,-9.544,-9.5466,-9.5482,-9.5485,-9.5486,-9.5484,-9.5525,-9.551,-9.5483,-9.5481,-9.5479,-9.5478,0,-9.4474,-9.4506,-9.4681,-9.4766,-9.4791,-9.4904,-9.4975,-9.5071,-9.51,-9.5235,-9.5267,-9.5312,-9.5433,-9.5457,-9.5599,-9.5608,-9.5793,-9.5779,-9.5766,-9.5765,-9.5878,-9.5868,-9.6238,-9.6288,-9.5973,-9.5976,-9.5978,0,-9.463,-9.4739,-9.4837,-9.4908,-9.4959,-9.5073,-9.5144,-9.516,-9.5235,-9.5338,-9.5421,-9.554,-9.5636,-9.583,-9.5874,-9.5983,-9.5972,-9.6095,-9.5988,-9.5986,-9.5976,-9.597,-9.5981,-9.6115,-9.6118,-9.6121,-9.6123,0,-9.4904,-9.4915,-9.502,-9.5133,-9.522,-9.5308,-9.5392,-9.5451,-9.5477,-9.5563,-9.5688,-9.5763,-9.5909,-9.6028,-9.6137,-9.6182,-9.6158,-9.6157,-9.6189,-9.6192,-9.618,-9.619,-9.5823,-9.6148,-9.6146,-9.6144,-9.6142,-9.6141,-9.5098,-9.5195,-9.528,-9.5398,-9.5464,-9.5543,-9.5638,-9.568,-9.5785,-9.5908,-9.591,-9.6047,-9.6127,-9.6272,-9.6324,-9.643,-9.6391,-9.6438,-9.645,-9.6461,-9.6473,-9.6163,-9.6449,-9.6449,-9.6448,-9.6448,-9.6447,0,-9.5372,-9.5426,-9.5535,-9.5655,-9.5749,-9.572,-9.5812,-9.5892,-9.6013,-9.6091,-9.6187,-9.6332,-9.6447,-9.6501,-9.6615,-9.6689,-9.6681,-9.6718,-9.6713,-9.6725,-9.65,-9.6461,-9.6723,-9.6723,-9.6723,-9.6723,-9.6723,-9.6723,-9.5526,-9.5689,-9.5711,-9.5906,-9.5957,-9.6094,-9.6149,-9.6222,-9.6285,-9.6448,-9.6545,-9.658,-9.6649,-9.6768,-9.6872,-9.6885,-9.6928,-9.6971,-9.6979,-9.6768,-9.674,-9.6713,-9.6677,-9.698,-9.6981,-9.7195,-9.7197,-9.7199]}]]